CSN5255 ZSNJ-ZBAA

Flight info

Callsign CSN5255
Flight time N/A
Altitude 36100
Route OF71X OF A470 DPX A593 DALIM W157 AVBOX AVBOX6J
Aircraft A320/M-SDE3FGHIRWY/LB1

Departure

Time 2026-04-29 07:34
Airport Nanjing Lukou International Airport (ZSNJ)

Arrival

Time N/A
Airport Beijing Capital International Airport (ZBAA)
Time Latitude Longitude Altitude Speed Heading
2026-04-29 06:37 31.74036 118.86741 59 ft 0 kts 58°
2026-04-29 07:25 31.74036 118.86742 58 ft 1 kts 58°
2026-04-29 07:25 31.74043 118.86754 58 ft 3 kts 58°
2026-04-29 07:25 31.74060 118.86776 56 ft 4 kts 29°
2026-04-29 07:26 31.74095 118.86768 58 ft 6 kts 328°
2026-04-29 07:26 31.74137 118.86737 58 ft 8 kts 328°
2026-04-29 07:26 31.74162 118.86697 56 ft 7 kts 272°
2026-04-29 07:26 31.74138 118.86641 58 ft 9 kts 237°
2026-04-29 07:27 31.74100 118.86571 54 ft 11 kts 238°
2026-04-29 07:27 31.74054 118.86485 53 ft 14 kts 237°
2026-04-29 07:27 31.74007 118.86397 55 ft 8 kts 239°
2026-04-29 07:27 31.74028 118.86341 54 ft 9 kts 324°
2026-04-29 07:28 31.74047 118.86271 56 ft 11 kts 244°
2026-04-29 07:28 31.74001 118.86187 56 ft 13 kts 238°
2026-04-29 07:28 31.73947 118.86086 51 ft 16 kts 237°
2026-04-29 07:28 31.73884 118.85969 52 ft 18 kts 238°
2026-04-29 07:29 31.73813 118.85836 56 ft 20 kts 238°
2026-04-29 07:29 31.73748 118.85715 56 ft 13 kts 238°
2026-04-29 07:29 31.73697 118.85619 54 ft 15 kts 238°
2026-04-29 07:29 31.73637 118.85507 55 ft 18 kts 238°
2026-04-29 07:30 31.73568 118.85378 56 ft 20 kts 238°
2026-04-29 07:30 31.73490 118.85233 58 ft 22 kts 238°
2026-04-29 07:30 31.73404 118.85074 52 ft 24 kts 237°
2026-04-29 07:31 31.73260 118.84804 54 ft 18 kts 238°
2026-04-29 07:31 31.73223 118.84723 56 ft 8 kts 263°
2026-04-29 07:31 31.73261 118.84675 58 ft 9 kts 328°
2026-04-29 07:31 31.73278 118.84663 58 ft 1 kts 328°
2026-04-29 07:32 31.73290 118.84654 56 ft 3 kts 328°
2026-04-29 07:32 31.73311 118.84639 58 ft 4 kts 328°
2026-04-29 07:32 31.73339 118.84618 57 ft 5 kts 328°
2026-04-29 07:32 31.73375 118.84624 56 ft 7 kts 46°
2026-04-29 07:33 31.73389 118.84649 59 ft 0 kts 58°
2026-04-29 07:33 31.73397 118.84664 53 ft 5 kts 58°
2026-04-29 07:33 31.73512 118.84881 51 ft 66 kts 58°
2026-04-29 07:33 31.73871 118.85550 56 ft 124 kts 57°
2026-04-29 07:34 31.74417 118.86567 58 ft 169 kts 58°
2026-04-29 07:34 31.75052 118.87756 503 ft 175 kts 58°
2026-04-29 07:34 31.75697 118.88971 1206 ft 173 kts 58°
2026-04-29 07:34 31.76345 118.90183 1729 ft 182 kts 58°
2026-04-29 07:35 31.77055 118.91504 2149 ft 199 kts 58°
2026-04-29 07:35 31.77956 118.92832 2491 ft 221 kts 33°
2026-04-29 07:35 31.79478 118.93314 2919 ft 239 kts 351°
2026-04-29 07:35 31.80972 118.92486 3674 ft 244 kts 313°
2026-04-29 07:36 31.81979 118.90866 4552 ft 247 kts 300°
2026-04-29 07:36 31.82855 118.89118 5426 ft 250 kts 299°
2026-04-29 07:36 31.83735 118.87343 6277 ft 253 kts 303°
2026-04-29 07:36 31.84913 118.85796 7098 ft 258 kts 322°
2026-04-29 07:37 31.86561 118.84798 7598 ft 277 kts 343°
2026-04-29 07:37 31.88453 118.84197 8311 ft 285 kts 345°
2026-04-29 07:37 31.90386 118.83596 9102 ft 289 kts 345°
2026-04-29 07:37 31.92314 118.82993 9880 ft 292 kts 345°
2026-04-29 07:38 31.94312 118.82361 10406 ft 307 kts 344°
2026-04-29 07:38 31.96456 118.81679 10614 ft 330 kts 344°
2026-04-29 07:38 31.98709 118.80959 11119 ft 340 kts 344°
2026-04-29 07:38 32.01005 118.80215 11791 ft 344 kts 344°
2026-04-29 07:39 32.03325 118.79444 12476 ft 348 kts 343°
2026-04-29 07:39 32.05665 118.78657 13150 ft 351 kts 343°
2026-04-29 07:39 32.08024 118.77861 13804 ft 355 kts 343°
2026-04-29 07:39 32.10403 118.77052 14462 ft 358 kts 343°
2026-04-29 07:40 32.12812 118.76233 15087 ft 361 kts 343°
2026-04-29 07:40 32.15240 118.75414 15689 ft 365 kts 343°
2026-04-29 07:40 32.17692 118.74592 16282 ft 368 kts 343°
2026-04-29 07:40 32.20171 118.73763 16868 ft 371 kts 343°
2026-04-29 07:41 32.22663 118.72925 17448 ft 374 kts 343°
2026-04-29 07:41 32.25164 118.72086 18007 ft 378 kts 343°
2026-04-29 07:41 32.27706 118.71234 18583 ft 381 kts 343°
2026-04-29 07:41 32.30239 118.70384 19151 ft 384 kts 343°
2026-04-29 07:42 32.32825 118.69513 19720 ft 388 kts 343°
2026-04-29 07:42 32.35432 118.68633 20302 ft 391 kts 343°
2026-04-29 07:42 32.38060 118.67746 20840 ft 394 kts 343°
2026-04-29 07:42 32.40704 118.66853 21368 ft 397 kts 343°
2026-04-29 07:43 32.43376 118.65949 21878 ft 400 kts 343°
2026-04-29 07:43 32.46068 118.65042 22378 ft 403 kts 343°
2026-04-29 07:43 32.48776 118.64129 22860 ft 406 kts 343°
2026-04-29 07:43 32.51509 118.63207 23329 ft 409 kts 343°
2026-04-29 07:44 32.54220 118.62290 23779 ft 412 kts 343°
2026-04-29 07:44 32.56987 118.61352 24217 ft 415 kts 343°
2026-04-29 07:44 32.59772 118.60409 24651 ft 418 kts 343°
2026-04-29 07:44 32.62577 118.59458 25067 ft 420 kts 343°
2026-04-29 07:45 32.65397 118.58498 25471 ft 423 kts 343°
2026-04-29 07:45 32.68238 118.57529 25866 ft 426 kts 343°
2026-04-29 07:45 32.71088 118.56535 26250 ft 428 kts 343°
2026-04-29 07:45 32.73943 118.55519 26623 ft 430 kts 343°
2026-04-29 07:46 32.76821 118.54484 26984 ft 433 kts 343°
2026-04-29 07:46 32.79711 118.53440 27339 ft 435 kts 342°
2026-04-29 07:46 32.82615 118.52394 27691 ft 438 kts 343°
2026-04-29 07:46 32.85540 118.51345 28041 ft 440 kts 343°
2026-04-29 07:47 32.88484 118.50290 28387 ft 442 kts 343°
2026-04-29 07:47 32.91439 118.49231 28722 ft 445 kts 343°
2026-04-29 07:47 32.94406 118.48166 29043 ft 447 kts 343°
2026-04-29 07:47 32.97395 118.47093 29371 ft 449 kts 343°
2026-04-29 07:48 33.00396 118.46017 29687 ft 451 kts 343°
2026-04-29 07:48 33.03413 118.44936 29997 ft 453 kts 343°
2026-04-29 07:48 33.06439 118.43848 30301 ft 456 kts 343°
2026-04-29 07:48 33.09444 118.42769 30660 ft 456 kts 343°
2026-04-29 07:49 33.12478 118.41677 31088 ft 454 kts 343°
2026-04-29 07:49 33.15505 118.40587 31500 ft 454 kts 343°
2026-04-29 07:49 33.18533 118.39497 31904 ft 453 kts 343°
2026-04-29 07:49 33.21543 118.38412 32305 ft 452 kts 343°
2026-04-29 07:50 33.24553 118.37325 32700 ft 451 kts 343°
2026-04-29 07:50 33.27552 118.36239 33092 ft 451 kts 343°
2026-04-29 07:50 33.30554 118.35155 33488 ft 450 kts 343°
2026-04-29 07:50 33.33549 118.34078 33882 ft 449 kts 343°
2026-04-29 07:51 33.36537 118.33005 34265 ft 448 kts 343°
2026-04-29 07:51 33.39529 118.31931 34630 ft 448 kts 343°
2026-04-29 07:51 33.42509 118.30857 34979 ft 447 kts 343°
2026-04-29 07:51 33.45443 118.29796 35309 ft 446 kts 343°
2026-04-29 07:52 33.48414 118.28718 35635 ft 446 kts 343°
2026-04-29 07:52 33.51389 118.27635 35935 ft 445 kts 343°
2026-04-29 07:52 33.54356 118.26560 36082 ft 446 kts 343°
2026-04-29 07:52 33.57340 118.25481 36110 ft 449 kts 343°
2026-04-29 07:53 33.63333 118.23313 36110 ft 450 kts 343°
2026-04-29 07:53 33.69295 118.21144 36110 ft 450 kts 343°
2026-04-29 07:54 33.75288 118.18958 36107 ft 450 kts 343°
2026-04-29 07:54 33.81275 118.16774 36110 ft 450 kts 343°
2026-04-29 07:55 33.87276 118.14590 36109 ft 450 kts 343°
2026-04-29 07:55 33.93275 118.12416 36112 ft 451 kts 343°
2026-04-29 07:56 33.99280 118.10226 36118 ft 451 kts 343°
2026-04-29 07:56 34.05282 118.08039 36117 ft 451 kts 343°
2026-04-29 07:57 34.10273 118.06227 36118 ft 451 kts 343°
2026-04-29 07:57 34.16279 118.04048 36121 ft 451 kts 343°
2026-04-29 07:58 34.22289 118.01862 36123 ft 451 kts 343°
2026-04-29 07:58 34.28293 117.99672 36123 ft 451 kts 343°
2026-04-29 07:59 34.34304 117.97514 36116 ft 451 kts 343°
2026-04-29 07:59 34.40324 117.95385 36116 ft 450 kts 343°
2026-04-29 08:00 34.46342 117.93245 36119 ft 450 kts 343°
2026-04-29 08:00 34.52318 117.91105 36116 ft 450 kts 343°
2026-04-29 08:01 34.58330 117.88942 36117 ft 450 kts 343°
2026-04-29 08:01 34.64341 117.86779 36115 ft 450 kts 343°
2026-04-29 08:02 34.70351 117.84623 36117 ft 450 kts 343°
2026-04-29 08:02 34.76355 117.82464 36117 ft 450 kts 343°
2026-04-29 08:03 34.82369 117.80298 36116 ft 450 kts 343°
2026-04-29 08:03 34.88373 117.78110 36188 ft 450 kts 336°
2026-04-29 08:04 34.94442 117.75865 36252 ft 463 kts 332°
2026-04-29 08:04 35.00712 117.73547 36249 ft 477 kts 332°
2026-04-29 08:05 35.07058 117.71234 36247 ft 480 kts 333°
2026-04-29 08:05 35.13472 117.68905 36250 ft 480 kts 333°
2026-04-29 08:06 35.19866 117.66563 36242 ft 479 kts 333°
2026-04-29 08:06 35.26256 117.64209 36242 ft 479 kts 332°
2026-04-29 08:07 35.32649 117.61852 36252 ft 479 kts 333°
2026-04-29 08:07 35.39047 117.59492 36265 ft 479 kts 333°
2026-04-29 08:08 35.45393 117.57147 36271 ft 479 kts 333°
2026-04-29 08:08 35.51771 117.54784 36274 ft 479 kts 333°
2026-04-29 08:09 35.58150 117.52417 36272 ft 479 kts 333°
2026-04-29 08:09 35.64522 117.50055 36273 ft 478 kts 333°
2026-04-29 08:10 35.70893 117.47690 36273 ft 478 kts 333°
2026-04-29 08:10 35.77259 117.45316 36271 ft 478 kts 333°
2026-04-29 08:11 35.83621 117.42941 36266 ft 478 kts 333°
2026-04-29 08:11 35.89976 117.40560 36271 ft 478 kts 333°
2026-04-29 08:12 35.96332 117.38172 36267 ft 478 kts 333°
2026-04-29 08:12 36.02696 117.35791 36265 ft 478 kts 333°
2026-04-29 08:13 36.09072 117.33441 36264 ft 478 kts 333°
2026-04-29 08:13 36.15443 117.31108 36274 ft 478 kts 334°
2026-04-29 08:14 36.21808 117.28759 36275 ft 477 kts 333°
2026-04-29 08:14 36.28161 117.26394 36273 ft 477 kts 333°
2026-04-29 08:15 36.34468 117.24047 36275 ft 476 kts 333°
2026-04-29 08:15 36.40814 117.21675 36272 ft 474 kts 333°
2026-04-29 08:16 36.46845 117.18681 36273 ft 465 kts 327°
2026-04-29 08:16 36.52817 117.15580 36265 ft 464 kts 327°
2026-04-29 08:17 36.58622 117.12557 36274 ft 464 kts 327°
2026-04-29 08:17 36.64559 117.09463 36274 ft 462 kts 327°
2026-04-29 08:18 36.70486 117.06365 36270 ft 461 kts 328°
2026-04-29 08:18 36.76407 117.03272 36273 ft 461 kts 328°